Showing default

FLOCK 4G 10, 62670

Orbit data source: Space-Track

FLOCK 4G 10, 62670 is a payload satellite owned by Planet (US) in SSO that was launched on Tue, 14 Jan 2025 UTC via an FALCON 9 launch vehicle from the Air Force Western Test Range (AFWTR). Payload-class satellites include a variety of spacecraft equipped with specific instruments for various scientific and technological missions. These include communications satellites like Starlink; space stations such as the ISS; scientific satellites like the Hubble; Earth observation satellites from companies like Planet Labs, Umbra, and HawkEye 360; GPS; miniature CubeSats for education and research; and military/defense satellites.

Loading next visibility...
Identifier
62670, 2025-009BP
Orbit
SSO
Country
Flag of USUS
Related business
Manufacturer
Planet
Mission
Operational Commercial Imaging
Bus & Motor
CUBESAT 3U, Unknown motor
Mass
5.7 kg wet, 5.7 kg dry
Launch date (UTC)
2025-01-14 (9 months ago)
Launch vehicle
FALCON 9
Launch site
Air Force Western Test Range (AFWTR)
Object type
Payload
Rocket body
Debris
Shape & HBR
Box + 2 Pan, 1.0 m
Radar Cross Section
0.072 m², Medium (>0.1 m² and < 1m²)

Expand to show TLE details & history
Last TLE update: 16 hours ago

TLE from 16 hours ago
0 FLOCK 4G 10
1 62670U 25009BP  25286.46989097  .00018586  00000-0  79536-3 0  9993
2 62670  97.4155   4.8875 0006260 121.8273 238.3574 15.22843797 98900
Epoch: 2025-10-13T11:16Z
TLE epoch observation values (Epoch: 2025-10-13T11:16:38.579Z)
Latitude
-0.00003°
Longitude
173.45454°
Altitude
502.622 km
Speed
7.612 km/s
True Right ascension
00h 19m 33s
True Declination
0° 00' 00"
Sunlit
Object was in full shadow at epoch
Visualization orbit readout
Latitude
Unknown
Longitude
Unknown
Altitude
Unknown
Speed
Unknown
Apparent Right ascension
Unknown
Apparent Declination
Unknown
Sunlit
N/A
Visualization observer readout
Local Sidereal Time
21:21:02
Azimuth
Unknown
Elevation
Unknown
Doppler factor
Unknown
Orbital elements
Apogee altitude
498.532 km
Perigee altitude
489.928 km
Semi-major axis
6,872.367 km
Eccentricity
0.00063
Inclination
97.4155°
RAAN
4.8875°
Arg. of periapsis
121.8273°
True anomaly
238.29635°
Mean anomaly
238.3574°
Eccentric anomaly
238.32687°
Mean motion
3.80964 °/min
Orbital period
94.5 mins
BSTAR
0.00079536
Loading maneuver chart data...
Computing Atmospheric mass density...
Loading historical data...
Loading historical data...
Loading historical data...
Loading historical data...
Loading historical data...
Loading historical data...
Loading historical data...

Documentation

Showing up to 5 results
|